Central Park, NY

10:18 PM EDT on June 22, 2017 (GMT -0400)
Central Park

Weather History for KNYC - September, 2013

Change the Weather History Date:

Thursday, September 12, 2013

  Actual Average Record
Temperature  
Mean Temperature 79 °F 70 °F  
Max Temperature 87 °F 77 °F 94 °F (1961)
Min Temperature 70 °F 62 °F 46 °F (1917)
Degree Days  
Heating Degree Days 0 1  
Month to date heating degree days 0 3  
Since 1 July heating degree days 0 5  
Cooling Degree Days 14 5  
Month to date cooling degree days 117 78  
Year to date cooling degree days 1210 1032  
Growing Degree Days 27 (Base 50)    
Moisture  
Dew Point 70 °F    
Average Humidity 79    
Maximum Humidity 97    
Minimum Humidity 61    
Precipitation  
Precipitation 1.60 in 0.14 in 2.35 in (1960)
Month to date precipitation 1.69 1.59  
Year to date precipitation 36.70 34.83  
Snow  
Snow 0.00 in 0.00 in 0.00 in (2002)
Month to date snowfall 0.0 0.0  
Since 1 July snowfall 0.0 0.0  
Snow Depth 0.00 in    
Sea Level Pressure  
Sea Level Pressure 29.84 in    
Wind  
Wind Speed 4 mph (WSW)    
Max Wind Speed 15 mph    
Max Gust Speed 24 mph    
Visibility 5 miles    
Events Fog , Rain    
T = Trace of Precipitation, MM = Missing Value Source: NWS Daily Summary

Daily Weather History Graph

Daily Weather History Graph

Search for Another Location

Airport or City:

Trip Planner

Search our weather history database for the weather conditions in past years. The results will help you decide how hot, cold, wet, or windy it might be!

Date:

Astronomy

Sep. 12, 2013 Rise Set
Actual Time 6:33 AM EDT 7:09 PM EDT
Civil Twilight 6:06 AM EDT 7:37 PM EDT
Nautical Twilight 5:33 AM EDT 8:09 PM EDT
Astronomical Twilight 5:00 AM EDT 8:43 PM EDT
Moon 2:01 PM EDT (9/12) No Moon Set
Length of Visible Light 13h 30m
Length of Day
12h 35m
Waxing Crescent, 50% of the Moon is Illuminated
Sep 12
Waxing Crescent
Sep 12
First Quarter
Sep 19
Full
Sep 26
Last Quarter
Oct 4
New

Hourly Weather History & Observations

Time (EDT) Temp. Heat Index Dew Point Humidity Pressure Visibility Wind Dir Wind Speed Gust Speed Precip Events Conditions
12:51 AM 82.0 °F 85.9 °F 70.0 °F 67% 29.98 in 8.0 mi SW 5.8 mph - N/A   Clear
1:51 AM 81.0 °F 83.8 °F 68.0 °F 65% 29.95 in 8.0 mi SW 5.8 mph - N/A   Clear
2:51 AM 79.0 °F - 68.0 °F 69% 29.95 in 7.0 mi Variable 4.6 mph - N/A   Clear
3:51 AM 79.0 °F - 68.0 °F 69% 29.94 in 7.0 mi Variable 3.5 mph - N/A   Mostly Cloudy
4:51 AM 78.1 °F - 68.0 °F 71% 29.94 in 7.0 mi SW 3.5 mph - N/A   Partly Cloudy
5:51 AM 77.0 °F - 68.0 °F 74% 29.94 in 7.0 mi Variable 5.8 mph - N/A   Clear
6:51 AM 77.0 °F - 69.1 °F 76% 29.93 in 5.0 mi Variable 3.5 mph - N/A   Haze
7:51 AM 77.0 °F - 69.1 °F 76% 29.93 in 5.0 mi Variable 4.6 mph - N/A   Haze
8:51 AM 78.1 °F - 69.1 °F 74% 29.92 in 5.0 mi Variable 6.9 mph - N/A   Haze
9:51 AM 80.1 °F 83.2 °F 70.0 °F 71% 29.90 in 5.0 mi Calm Calm - N/A   Haze
10:51 AM 82.9 °F 87.0 °F 70.0 °F 65% 29.88 in 6.0 mi South 4.6 mph - N/A   Haze
11:51 AM 84.9 °F 88.8 °F 69.1 °F 59% 29.86 in 6.0 mi South 6.9 mph - N/A   Haze
12:51 PM 82.9 °F 86.5 °F 69.1 °F 63% 29.86 in 6.0 mi West 9.2 mph - N/A   Haze
1:13 PM 81.0 °F 83.3 °F 66.9 °F 62% 29.88 in 7.0 mi Variable 5.8 mph - N/A   Overcast
1:18 PM 79.0 °F - 68.0 °F 69% 29.90 in 0.5 mi West 9.2 mph - 0.00 in Rain Rain
1:37 PM 73.0 °F - 72.0 °F 96% 29.86 in 0.5 mi Variable 3.5 mph - 0.47 in Fog , Rain Light Rain
1:45 PM 73.4 °F - 71.6 °F 94% 29.87 in 2.0 mi Calm Calm - 0.47 in   Overcast
1:51 PM 75.0 °F - 73.0 °F 94% 29.83 in 1.8 mi Calm Calm - 0.47 in   Overcast
2:26 PM 75.9 °F - 73.0 °F 91% 29.84 in 2.5 mi Variable 4.6 mph - N/A   Partly Cloudy
2:41 PM 77.0 °F - 73.9 °F 90% 29.83 in 1.8 mi North - - N/A   Clear
2:51 PM 77.0 °F - 73.9 °F 90% 29.80 in 2.5 mi Variable 3.5 mph - N/A   Clear
3:20 PM 78.1 °F - 73.9 °F 87% 29.81 in 4.0 mi Variable 3.5 mph - N/A   Partly Cloudy
3:51 PM 80.1 °F 84.5 °F 73.9 °F 81% 29.75 in 5.0 mi Variable 5.8 mph - N/A   Haze
4:51 PM 80.1 °F 82.9 °F 69.1 °F 69% 29.73 in 9.0 mi North - - N/A   Clear
5:51 PM 81.0 °F 85.2 °F 72.0 °F 74% 29.70 in 7.0 mi Variable 4.6 mph - N/A   Partly Cloudy
6:51 PM 78.1 °F - 71.1 °F 79% 29.68 in 5.0 mi Variable 5.8 mph - 0.00 in Rain Light Rain
7:33 PM 75.0 °F - 69.1 °F 82% 29.78 in 2.5 mi WNW 9.2 mph 23.0 mph 0.00 in Rain Light Rain
7:37 PM 72.0 °F - 69.1 °F 91% 29.80 in 0.8 mi West 11.5 mph 23.0 mph 0.03 in Rain Heavy Rain
7:51 PM 70.0 °F - 68.0 °F 93% 29.76 in 0.2 mi Variable 3.5 mph 24.2 mph 0.81 in Fog , Rain Heavy Rain
8:00 PM 70.0 °F - 68.0 °F 93% 29.79 in 1.0 mi NW 9.2 mph - 0.13 in Rain Rain
8:28 PM 70.0 °F - 68.0 °F 93% 29.76 in 3.0 mi Calm Calm - 0.28 in Rain Light Rain
8:51 PM 70.0 °F - 68.0 °F 93% 29.74 in 5.0 mi Calm Calm - 0.29 in Rain Rain
9:51 PM 71.1 °F - 68.0 °F 90% 29.72 in 6.0 mi Calm Calm - 0.03 in   Clear
10:51 PM 70.0 °F - 66.9 °F 90% 29.72 in 7.0 mi West 5.8 mph - N/A   Clear
11:51 PM 70.0 °F - 66.9 °F 90% 29.71 in 5.0 mi North - - N/A   Clear